DLH9902 EDDM-EDDC

Flight info

Callsign DLH9902
Flight time 0h 33m
Altitude 24000
Route AKINI1N AKINI Y104 MAMOR L132 AGNAV/N0354F230 DCT SUPIL DCT KILNU L132 ABKIS Q240 DRN
Aircraft A388/J-SADE2E3FGHIJ3J4J5M1RWXY/LB1D1

Departure

Time 2026-05-06 19:35
Airport Munich Airport (EDDM)

Arrival

Time 2026-05-06 20:09
Airport Dresden Airport (EDDC)
Time Latitude Longitude Altitude Speed Heading
2026-05-06 19:06 48.35465 11.79718 1462 ft 0 kts 84°
2026-05-06 19:23 48.35464 11.79703 1466 ft 4 kts 81°
2026-05-06 19:23 48.35458 11.79666 1463 ft 4 kts 67°
2026-05-06 19:24 48.35445 11.79632 1461 ft 4 kts 47°
2026-05-06 19:24 48.35425 11.79608 1461 ft 4 kts 21°
2026-05-06 19:24 48.35403 11.79601 1465 ft 3 kts 355°
2026-05-06 19:24 48.35400 11.79601 1461 ft 0 kts 354°
2026-05-06 19:27 48.35419 11.79598 1461 ft 8 kts 353°
2026-05-06 19:27 48.35501 11.79583 1466 ft 15 kts 353°
2026-05-06 19:27 48.35625 11.79562 1470 ft 21 kts 353°
2026-05-06 19:28 48.35742 11.79542 1462 ft 0 kts 353°
2026-05-06 19:28 48.35772 11.79537 1470 ft 9 kts 354°
2026-05-06 19:28 48.35861 11.79520 1464 ft 15 kts 353°
2026-05-06 19:28 48.35925 11.79510 1466 ft 0 kts 354°
2026-05-06 19:29 48.35945 11.79507 1468 ft 7 kts 354°
2026-05-06 19:29 48.36020 11.79494 1463 ft 14 kts 354°
2026-05-06 19:29 48.36094 11.79482 1469 ft 0 kts 354°
2026-05-06 19:29 48.36021 11.79494 1462 ft 0 kts 354°
2026-05-06 19:31 48.36089 11.79481 1465 ft 22 kts 353°
2026-05-06 19:31 48.36188 11.79484 1467 ft 11 kts 36°
2026-05-06 19:31 48.36249 11.79964 1471 ft 26 kts 83°
2026-05-06 19:32 48.36267 11.80212 1468 ft 26 kts 83°
2026-05-06 19:32 48.36292 11.80478 1465 ft 27 kts 83°
2026-05-06 19:32 48.36311 11.80755 1465 ft 29 kts 84°
2026-05-06 19:32 48.36335 11.81055 1472 ft 29 kts 84°
2026-05-06 19:33 48.36358 11.81351 1467 ft 30 kts 83°
2026-05-06 19:33 48.36381 11.81662 1461 ft 29 kts 84°
2026-05-06 19:33 48.36395 11.81893 1468 ft 8 kts 94°
2026-05-06 19:33 48.36402 11.81990 1464 ft 8 kts 39°
2026-05-06 19:34 48.36445 11.82011 1465 ft 7 kts 354°
2026-05-06 19:34 48.36569 11.81979 1463 ft 22 kts 351°
2026-05-06 19:34 48.36670 11.81870 1462 ft 19 kts 274°
2026-05-06 19:34 48.36644 11.81507 1468 ft 75 kts 262°
2026-05-06 19:35 48.36545 11.80329 1470 ft 150 kts 262°
2026-05-06 19:35 48.36435 11.78716 1860 ft 163 kts 261°
2026-05-06 19:35 48.36317 11.77139 2752 ft 153 kts 265°
2026-05-06 19:35 48.36287 11.75585 3576 ft 145 kts 270°
2026-05-06 19:36 48.36224 11.74040 4044 ft 162 kts 263°
2026-05-06 19:36 48.36042 11.72282 4469 ft 180 kts 262°
2026-05-06 19:36 48.35860 11.70388 4734 ft 197 kts 266°
2026-05-06 19:36 48.36048 11.68282 4909 ft 216 kts 290°
2026-05-06 19:37 48.36928 11.66451 5640 ft 233 kts 316°
2026-05-06 19:37 48.38304 11.65370 6782 ft 240 kts 339°
2026-05-06 19:37 48.39994 11.64830 7785 ft 247 kts 343°
2026-05-06 19:37 48.41128 11.64488 8183 ft 262 kts 343°
2026-05-06 19:38 48.43633 11.63731 8850 ft 291 kts 346°
2026-05-06 19:38 48.45627 11.63662 9857 ft 302 kts
2026-05-06 19:38 48.47639 11.64562 10860 ft 310 kts 24°
2026-05-06 19:38 48.49390 11.66364 11885 ft 316 kts 41°
2026-05-06 19:39 48.50774 11.68936 12783 ft 323 kts 54°
2026-05-06 19:39 48.52063 11.71666 13762 ft 325 kts 53°
2026-05-06 19:39 48.53372 11.74378 14551 ft 330 kts 53°
2026-05-06 19:39 48.54736 11.77187 15287 ft 336 kts 53°
2026-05-06 19:40 48.56106 11.80016 16041 ft 341 kts 53°
2026-05-06 19:40 48.57485 11.82868 16794 ft 346 kts 54°
2026-05-06 19:40 48.58908 11.85821 17567 ft 351 kts 54°
2026-05-06 19:40 48.60252 11.88613 18244 ft 356 kts 54°
2026-05-06 19:41 48.61671 11.91564 18870 ft 361 kts 54°
2026-05-06 19:41 48.63116 11.94575 19503 ft 366 kts 54°
2026-05-06 19:41 48.64584 11.97635 20122 ft 370 kts 54°
2026-05-06 19:41 48.66092 12.00713 20637 ft 379 kts 49°
2026-05-06 19:42 48.68095 12.03291 20839 ft 396 kts 29°
2026-05-06 19:42 48.70589 12.05112 21022 ft 411 kts 20°
2026-05-06 19:42 48.73262 12.06722 21204 ft 427 kts 19°
2026-05-06 19:42 48.75922 12.08302 21671 ft 433 kts 20°
2026-05-06 19:43 48.78713 12.10014 22243 ft 438 kts 20°
2026-05-06 19:43 48.81438 12.11738 22774 ft 443 kts 21°
2026-05-06 19:43 48.84188 12.13508 23315 ft 448 kts 21°
2026-05-06 19:43 48.87064 12.15375 23688 ft 452 kts 21°
2026-05-06 19:44 48.89920 12.17236 23820 ft 454 kts 21°
2026-05-06 19:44 48.91867 12.18505 23857 ft 464 kts 21°
2026-05-06 19:44 48.94869 12.20461 23854 ft 479 kts 21°
2026-05-06 19:44 48.97925 12.22458 23850 ft 480 kts 21°
2026-05-06 19:45 49.00902 12.24408 23851 ft 479 kts 21°
2026-05-06 19:45 49.03893 12.26368 23850 ft 479 kts 21°
2026-05-06 19:45 49.06921 12.28355 23849 ft 479 kts 21°
2026-05-06 19:45 49.09952 12.30345 23854 ft 478 kts 21°
2026-05-06 19:46 49.12996 12.32347 23848 ft 478 kts 21°
2026-05-06 19:46 49.16056 12.34361 23849 ft 478 kts 21°
2026-05-06 19:46 49.19096 12.36364 23851 ft 478 kts 21°
2026-05-06 19:46 49.22160 12.38387 23844 ft 478 kts 21°
2026-05-06 19:47 49.25097 12.40328 23845 ft 478 kts 21°
2026-05-06 19:47 49.28123 12.42331 23841 ft 478 kts 21°
2026-05-06 19:47 49.31120 12.44317 23844 ft 476 kts 22°
2026-05-06 19:47 49.34117 12.46307 23835 ft 475 kts 22°
2026-05-06 19:48 49.37086 12.48279 23835 ft 475 kts 22°
2026-05-06 19:48 49.40106 12.50288 23827 ft 475 kts 22°
2026-05-06 19:48 49.43008 12.52222 23829 ft 475 kts 22°
2026-05-06 19:48 49.46022 12.54233 23829 ft 475 kts 22°
2026-05-06 19:49 49.49082 12.56089 23827 ft 473 kts 14°
2026-05-06 19:49 49.52177 12.57221 23820 ft 470 kts 10°
2026-05-06 19:49 49.55359 12.58300 23817 ft 470 kts 10°
2026-05-06 19:49 49.58549 12.59394 23815 ft 470 kts 11°
2026-05-06 19:50 49.61736 12.60498 23820 ft 470 kts 11°
2026-05-06 19:50 49.64932 12.61613 23813 ft 470 kts 11°
2026-05-06 19:50 49.68066 12.62712 23814 ft 470 kts 11°
2026-05-06 19:50 49.71236 12.63826 23812 ft 470 kts 11°
2026-05-06 19:51 49.74409 12.64941 23812 ft 469 kts 12°
2026-05-06 19:51 49.77588 12.66063 23809 ft 469 kts 12°
2026-05-06 19:51 49.80770 12.67186 23807 ft 469 kts 11°
2026-05-06 19:51 49.83866 12.68281 23797 ft 466 kts 12°
2026-05-06 19:52 49.87032 12.69403 23603 ft 450 kts 12°
2026-05-06 19:52 49.89820 12.70393 23360 ft 437 kts 11°
2026-05-06 19:52 49.92740 12.71429 23093 ft 433 kts 11°
2026-05-06 19:52 49.95510 12.72410 22845 ft 431 kts 12°
2026-05-06 19:53 49.98497 12.73471 22568 ft 427 kts 12°
2026-05-06 19:53 50.01252 12.74453 22307 ft 426 kts 12°
2026-05-06 19:53 50.04184 12.75498 22046 ft 424 kts 12°
2026-05-06 19:53 50.06912 12.76471 21803 ft 423 kts 12°
2026-05-06 19:54 50.09788 12.77498 21538 ft 421 kts 12°
2026-05-06 19:54 50.12579 12.78497 21283 ft 420 kts 12°
2026-05-06 19:54 50.15400 12.79508 21034 ft 418 kts 12°
2026-05-06 19:54 50.18111 12.80480 20777 ft 416 kts 12°
2026-05-06 19:55 50.20836 12.81459 20540 ft 415 kts 12°
2026-05-06 19:55 50.23601 12.82452 20291 ft 413 kts 12°
2026-05-06 19:55 50.26381 12.83453 20045 ft 411 kts 12°
2026-05-06 19:55 50.29111 12.84436 19797 ft 409 kts 12°
2026-05-06 19:56 50.31743 12.85386 19410 ft 406 kts 12°
2026-05-06 19:56 50.34494 12.86380 18855 ft 402 kts 12°
2026-05-06 19:56 50.37114 12.87328 18272 ft 398 kts 11°
2026-05-06 19:56 50.39772 12.88616 17587 ft 396 kts 25°
2026-05-06 19:57 50.42072 12.90886 16906 ft 393 kts 35°
2026-05-06 19:57 50.44261 12.93383 16236 ft 389 kts 36°
2026-05-06 19:57 50.46357 12.95778 15612 ft 385 kts 35°
2026-05-06 19:57 50.48521 12.98234 14991 ft 382 kts 35°
2026-05-06 19:58 50.50664 13.00655 14381 ft 378 kts 35°
2026-05-06 19:58 50.52722 13.02974 13786 ft 375 kts 35°
2026-05-06 19:58 50.54810 13.05325 13104 ft 373 kts 34°
2026-05-06 19:58 50.56894 13.07674 12475 ft 369 kts 34°
2026-05-06 19:59 50.58970 13.10016 11809 ft 366 kts 34°
2026-05-06 19:59 50.61019 13.12331 11206 ft 363 kts 34°
2026-05-06 19:59 50.63035 13.14610 10616 ft 359 kts 34°
2026-05-06 19:59 50.65042 13.16881 10049 ft 355 kts 34°
2026-05-06 20:00 50.66990 13.19090 9839 ft 341 kts 33°
2026-05-06 20:00 50.68856 13.21210 9748 ft 322 kts 33°
2026-05-06 20:00 50.70636 13.23234 9786 ft 315 kts 33°
2026-05-06 20:00 50.72399 13.25234 9636 ft 313 kts 33°
2026-05-06 20:01 50.74135 13.27206 9353 ft 310 kts 33°
2026-05-06 20:01 50.75753 13.29046 8924 ft 309 kts 33°
2026-05-06 20:01 50.77467 13.30999 8498 ft 306 kts 33°
2026-05-06 20:01 50.79170 13.32942 8077 ft 304 kts 33°
2026-05-06 20:02 50.80880 13.34894 7828 ft 302 kts 33°
2026-05-06 20:02 50.82581 13.36837 7773 ft 302 kts 34°
2026-05-06 20:02 50.84273 13.38771 7721 ft 301 kts 34°
2026-05-06 20:02 50.85936 13.40677 7499 ft 302 kts 34°
2026-05-06 20:03 50.87677 13.42455 7177 ft 301 kts 27°
2026-05-06 20:03 50.89414 13.44134 6742 ft 300 kts 33°
2026-05-06 20:03 50.91044 13.46131 6337 ft 297 kts 38°
2026-05-06 20:03 50.92588 13.48240 5932 ft 292 kts 39°
2026-05-06 20:04 50.94106 13.50306 5521 ft 281 kts 39°
2026-05-06 20:04 50.95545 13.52273 5151 ft 272 kts 39°
2026-05-06 20:04 50.96946 13.54185 4799 ft 267 kts 39°
2026-05-06 20:04 50.98353 13.56109 4429 ft 266 kts 39°
2026-05-06 20:05 50.99743 13.58011 4087 ft 264 kts 40°
2026-05-06 20:05 51.01117 13.59888 3664 ft 261 kts 40°
2026-05-06 20:05 51.02392 13.61650 3267 ft 255 kts 41°
2026-05-06 20:05 51.03700 13.63505 2902 ft 249 kts 42°
2026-05-06 20:06 51.04948 13.65266 2543 ft 226 kts 41°
2026-05-06 20:06 51.06061 13.66779 2523 ft 198 kts 41°
2026-05-06 20:06 51.07057 13.68083 2270 ft 168 kts 40°
2026-05-06 20:06 51.07892 13.69181 2074 ft 148 kts 43°
2026-05-06 20:07 51.08638 13.70214 1806 ft 141 kts 42°
2026-05-06 20:07 51.09365 13.71193 1644 ft 139 kts 41°
2026-05-06 20:07 51.10095 13.72187 1450 ft 140 kts 43°
2026-05-06 20:07 51.10823 13.73216 1239 ft 140 kts 41°
2026-05-06 20:08 51.11558 13.74233 1054 ft 142 kts 40°
2026-05-06 20:08 51.12283 13.75211 871 ft 142 kts 40°
2026-05-06 20:08 51.12980 13.76169 762 ft 122 kts 41°
2026-05-06 20:08 51.13512 13.76903 739 ft 84 kts 41°
2026-05-06 20:09 51.13816 13.77324 732 ft 35 kts 41°
2026-05-06 20:09 51.13881 13.77418 729 ft 9 kts 64°
2026-05-06 20:09 51.13874 13.77555 725 ft 13 kts 116°
2026-05-06 20:09 51.13800 13.77692 723 ft 18 kts 140°
2026-05-06 20:10 51.13731 13.77673 724 ft 11 kts 215°
2026-05-06 20:10 51.13661 13.77593 722 ft 13 kts 218°
2026-05-06 20:10 51.13590 13.77503 729 ft 14 kts 218°
2026-05-06 20:10 51.13519 13.77401 732 ft 14 kts 225°
2026-05-06 20:11 51.13452 13.77298 736 ft 13 kts 220°
2026-05-06 20:11 51.13380 13.77201 739 ft 16 kts 220°
2026-05-06 20:11 51.13275 13.77058 744 ft 20 kts 220°
2026-05-06 20:11 51.13174 13.76921 747 ft 20 kts 220°
2026-05-06 20:12 51.13157 13.76897 747 ft 0 kts 220°
2026-05-06 20:12 51.13146 13.76883 748 ft 6 kts 218°
2026-05-06 20:12 51.13133 13.76876 751 ft 4 kts 170°
2026-05-06 20:12 51.13118 13.76887 751 ft 1 kts 130°
2026-05-06 20:13 51.13092 13.76934 751 ft 0 kts 130°
2026-05-06 20:13 51.13089 13.76941 751 ft 0 kts 130°